Preview of NWS' New Version of Forecast
This preview is not operational and should not be used for support decisions.

Regional Weather Roundup (RWR)

Issued by Gray - Portland, ME (GYX)

                            
000
ASUS41 KGYX 192210
RWRGYX
WEATHER ROUNDUP FOR MAINE AND NEW HAMPSHIRE
NATIONAL WEATHER SERVICE GRAY ME
600 PM EDT MON AUG 19 2019

MEZ002-005-006-010-012-015-018-020-021-024-026-027-029-192300-
MAINE
  
CITY           SKY/WX    TMP DP  RH WIND       PRES   REMARKS
PORTLAND       FAIR      83  69  62 SW10G20   29.86F                  
SANFORD        FAIR      80  71  74 SW8       29.87F                  
BAR HARBOR     CLOUDY    68  68 100 S8        29.88S FOG              
WISCASSET      PTSUNNY   76  68  76 S3        29.87F                  
ROCKLAND       FAIR      74  70  87 SW9       29.86F                  
FRYEBURG       FAIR      76  69  79 VRB5      29.87F                  
LEWISTONAUBURN FAIR      73  69  87 E5        29.87F THUNDER          
AUGUSTA        PTSUNNY   73  72  96 SE6       29.87F                  
WATERVILLE     FAIR      74  72  93 VRB3      29.85S                  
BANGOR         LGT RAIN  73  69  87 S8        29.86R                  
GREENVILLE       N/A     72  70  93 VRB3      29.88R                  
MILLINOCKET    PTSUNNY   75  69  81 CALM      29.86R                  
HOULTON        CLOUDY    71  67  87 S5        29.82S                  
PRESQUE ISLE   CLOUDY    71  69  93 S7        29.83R                  
FRENCHVILLE    CLOUDY    68  67  96 SE7       29.81F                  
CARIBOU        CLOUDY    71  66  84 CALM      29.82R                  
$$

NHZ002-005-008-009-011-012-014-192300-
NEW HAMPSHIRE
  
CITY           SKY/WX    TMP DP  RH WIND       PRES   REMARKS
PORTSMOUTH     PTSUNNY   75  73  92 W3        29.86F                  
ROCHESTER      FAIR      80  72  76 CALM      29.88                   
NASHUA         PTSUNNY   77  72  84 W9        29.90F                  
MANCHESTER     PTSUNNY   81  67  62 SW8       29.88S                  
CONCORD        FAIR      85  70  60 SW7       29.88S                  
LACONIA        FAIR      82  69  64 W6        29.89S                  
PLYMOUTH       FAIR      82  66  58 CALM      29.89S                  
BERLIN         FAIR      81  63  54 MISG      29.89S                  
WHITEFIELD     FAIR      81  62  52 W10G17    29.90R                  
JAFFREY        FAIR      80  72  76 SW3       29.96S                  
KEENE          FAIR      83  66  56 SW6       29.93R                  
LEBANON        FAIR      85  64  49 SW7       29.89F                  
MT WASHINGTON  FOG       55  55 100 W37G46      N/A  VSB 0            
$$

VTZ005-007-008-192300-
VERMONT
  
CITY           SKY/WX    TMP DP  RH WIND       PRES   REMARKS
ST JOHNSBURY     N/A     81  65  58 MISG      29.87R                  
MONTPELIER     PTSUNNY   79  64  60 SW6       29.94S                  
BURLINGTON     PTSUNNY   85  61  44 W10       29.87R                  
$$

MAZ007-012-024-CTZ003-RIZ002-NYZ038-NYZ072-192300-
SOUTHERN NEW ENGLAND AND NY
  
CITY           SKY/WX    TMP DP  RH WIND       PRES   REMARKS
BOSTON         PTSUNNY   84  68  58 SW16G25   29.89R                  
WORCESTER      FAIR      74  70  87 SW10      29.97R                  
NANTUCKET      FAIR      75  73  93 S8        29.95F                  
PROVIDENCE     PTSUNNY   80  67  64 N14G20    29.97R THUNDER          
HARTFORD       PTSUNNY   89  68  49 W8        29.91R HX  93           
ALBANY         FAIR      84  67  56 NW6       29.92F                  
NEW YORK CITY  PTSUNNY   84  68  58 SE8G22    29.95R                  
$$

ANZ081-ANZ082-ANZ150-NHZ014-MEZ023>029-192300-
COASTAL MARINE OBSERVATIONS
  
STATION/POSITION TIME  TEMP    WIND        PRES    WAVE
                       AIR SEA DIR/SP/G            HT/PER
                 (UTC) (F)     (DEG/KT/KT) (MB)    (FT/S)
MATINICUS ROCK   2150   64                 1011.3R
ISLE OF SHOALS   2100   75     340/ 14/ 15 1011.6R
JEFFREYS LEDGE   2138      69                N/A     3/ 3
CASHES LEDGE BUO 2150   67 63  200/ 12/ 14 1011.9F   3/ 7
GEORGES BANK BUO 2150   74 73  150/  6/  6 1015.5F   2/ 8
$$

.............KEY..............
   WCI - WIND CHILL
   TC  - TEMPERATURE IN CELSIUS
   VSB - VISIBILITY IN MILES
   HX  - HEAT INDEX
   FAIR- INDICATES FEW OR NO CLOUDS BELOW 12,000 FT, WITH NO 
         SIGNIFICANT WEATHER AND/OR OBSTRUCTIONS TO VISIBILITY.